Regional Weather Roundup
Issued by NWS

Home | Current Version | Previous Version | Text Only | Print | Product List | Glossary On
Versions: 1 2 3 4 5 6 7 8 9 10 11 12 13 14 15 16 17 18 19 20 21 22 23 24 25 26 27 28 29 30 31 32 33 34 35 36 37 38 39 40 41 42 43 44 45 46 47 48 49 50
000
ASUS43 KDTX 310910
RWRMI
MICHIGAN HOURLY REGIONAL WEATHER ROUNDUP
NATIONAL WEATHER SERVICE DETROIT/PONTIAC MI
500 AM EDT FRI OCT 31 2014

NOTE: "FAIR" INDICATES FEW OR NO CLOUDS BELOW 12,000 FEET WITH NO
SIGNIFICANT WEATHER AND/OR OBSTRUCTION TO VISIBILITY.

MIZ047>049-052>055-059>063-066>070-074>076-081>083-311000-
SOUTHEAST LOWER MICHIGAN

CITY           SKY/WX    TMP DP  RH WIND       PRES   REMARKS
ADRIAN         CLOUDY    43  36  76 W3        29.94F
ALMA           RAIN      43  40  91 W8        29.91S
ANN ARBOR      CLOUDY    43  35  73 SW6       29.92F
BAD AXE        LGT RAIN  42  40  94 SW3       29.90F
CARO           DRIZZLE   41  40  94 CALM      29.89F
DETROIT CITY   LGT RAIN  47  36  65 SW6       29.94F
DETROIT        LGT RAIN  45  36  70 SW9       29.94F
FLINT          CLOUDY    45  37  73 SW6       29.91F
GROSSE ILE     CLOUDY    45  37  76 SW7       29.93F
HILLSDALE      LGT RAIN  43  39  85 SW5       29.92F
HOWELL         CLOUDY    42  36  79 S3        29.91F

CITY           SKY/WX    TMP DP  RH WIND       PRES   REMARKS
JACKSON        CLOUDY    43  37  79 SW7       29.92F
LAMBERTVILLE   CLOUDY    45  34  65 SW3       29.95F
LANSING        LGT RAIN  44  37  76 SW7       29.91F
LAPEER         DRIZZLE   43  37  79 SW3       29.91F
MASON          LGT RAIN  42  37  80 CALM      29.91F
MONROE         CLOUDY    45  37  76 SW6       29.93F
MT. CLEMENS    CLOUDY    45  38  76 SW6       29.90F
PONTIAC        CLOUDY    43  35  73 SW3       29.90F
PORT HOPE        N/A     43  39  86 SW6       29.88F
PORT HURON     DRIZZLE   43  39  87 CALM      29.92F
TRI CITIES     LGT RAIN  43  40  89 W5        29.91S FOG
TROY           CLOUDY    46  35  67 SW6       29.94F
SAGINAW HB     DRIZZLE   43  39  87 S6        29.89F
$$
MIZ043>046-050>051-056>058-064>065-071>073-077>080-311000-
SOUTHWEST LOWER MICHIGAN

CITY           SKY/WX    TMP DP  RH WIND       PRES   REMARKS
BATTLE CREEK   CLOUDY    44  38  79 W8        29.92F
BENTON HARBOR  LGT RAIN  44  40  85 NW10G20   29.96F FOG
BIG RAPIDS     LGT RAIN  39  39 100 NW7       29.90F WCI  34
COLDWATER      CLOUDY    45  39  80 SW6       29.93F
FREMONT        DRIZZLE   40  38  93 NW7       29.93F WCI  35
HOLLAND        RAIN      44  39  82 NW6G23    29.96S
GRAND RAPIDS   LGT RAIN  43  42  97 NW9       29.93S
IONIA          RAIN      44  40  88 NW13      29.91S
KALAMAZOO      LGT RAIN  45  40  82 W6        29.93F
LUDINGTON      LGT RAIN  40  36  87 N15G23    29.94S WCI  32
MARSHALL       CLOUDY    43  37  81 SW5       29.91F
MOUNT PLEASANT RAIN      41  39  93 CALM      29.89F
MUSKEGON       LGT RAIN  42  36  79 N12       29.96S
SOUTH HAVEN    LGT RAIN  45  40  83 NW13G18   29.95F
$$
MIZ016>042-311000-
NORTHERN LOWER MICHIGAN

CITY           SKY/WX    TMP DP  RH WIND       PRES   REMARKS
ALPENA         LGT RAIN  40  39  97 CALM      29.88S
BEAVER ISLAND  LGT RAIN  37  35  91 NE16G25   29.97R WCI  28
BELLAIRE       MIX PCPN  40  38  93 N3        29.89F
CADILLAC       LGT RAIN  38  37  96 NW8       29.88F WCI  32
CHARLEVOIX     LGT RAIN  38  36  92 NE15G24   29.94R WCI  30
FRANKFORT      RAIN      40  38  93 N9G16     29.92S WCI  34
GAYLORD        LGT RAIN  37  35  92 CALM      29.87S
GRAYLING       LGT RAIN  38  37  95 CALM      29.88F
HARBOR SPRINGS RAIN      37  34  91 N10       29.92R WCI  29
HOUGHTON LAKE  LGT RAIN  39  37  92 NW5       29.88F
MANISTEE       CLOUDY    41  36  81 N15G23    29.93S
OSCODA         RAIN      41  40  98 SW5       29.88S
PELLSTON       LGT RAIN  36  34  92 N15G24    29.94R WCI  27
ROGERS CITY    CLOUDY    39  39 100 N12G21    29.89S WCI  32
TRAVERSE CITY  CLOUDY    41  37  86 W6        29.89F
$$
MIZ007>008-015-311000-
EASTERN UPPER MICHIGAN

CITY           SKY/WX    TMP DP  RH WIND       PRES   REMARKS
KINROSS        CLOUDY    34  34 100 NE20G30   29.96S WCI  22
MACKINAC ISLAN FLURRIES  35  34  98 N22G33    29.94R WCI  23
NEWBERRY       CLOUDY    32  31  95 N14G23    30.01R WCI  22
S. S. MARIE    CLOUDY    34  29  82 NE16G24   29.99R WCI  24
MUNISING         N/A     38  33  82 N35G43    30.11R WCI  25
$$
MIZ004>006-011>014-085-311000-
CENTRAL UPPER MICHIGAN

CITY           SKY/WX    TMP DP  RH WIND       PRES   REMARKS
MANISTIQUE     LGT SNOW  34  32  94 N20G25    30.02R WCI  22
ESCANABA       CLOUDY    34  28  80 N13G26    30.07R WCI  25
MENOMINEE      CLOUDY    36  28  75 N15G33    30.06R WCI  26
SAWYER-GWINN   LGT SNOW  30  27  86 N28G35    30.11R WCI  16
$$
MIZ001>003-009>011-084-311000-
WESTERN UPPER MICHIGAN

CITY           SKY/WX    TMP DP  RH WIND       PRES   REMARKS
IRON MOUNTAIN  MIX PCPN  33  26  75 N15G32    30.13R WCI  23
HOUGHTON       LGT SNOW  30  22  72 N17G28    30.27R WCI  18
COPPER HARBOR    N/A     35  27  72 NE33G44   30.26R WCI  21
IRONWOOD       CLOUDY    30  25  80 N8G22     30.31R WCI  23
$$

ABBREVIATIONS USED IN REMARKS
   TC - TEMPERATURE IN CELSIUS
  WCI - WIND CHILL INDEX
   HX - HEAT INDEX
  VSB - VISIBILITY




USA.gov is the U.S. government's official web portal to all federal, state and local government web resources and services.